TimeEST,TemperatureF,Dew PointF,Humidity,Sea Level PressureIn,VisibilityMPH,Wind Direction,Wind SpeedMPH,Gust SpeedMPH,PrecipitationIn,Events,Conditions,WindDirDegrees,DateUTC
12:53 AM,73.9,64.9,73,30.11,10.0,ENE,20.7,32.2,N/A,,Overcast,70,2013-11-05 05:53:00
1:53 AM,73.0,66.9,81,30.09,10.0,NE,12.7,21.9,N/A,,Overcast,50,2013-11-05 06:53:00
2:53 AM,75.0,66.0,73,30.09,10.0,ENE,15.0,23.0,N/A,,Mostly Cloudy,70,2013-11-05 07:53:00
3:53 AM,75.9,68.0,76,30.08,10.0,ENE,16.1,26.5,N/A,,Overcast,70,2013-11-05 08:53:00
4:53 AM,73.9,69.1,85,30.08,10.0,East,13.8,24.2,0.00,,Mostly Cloudy,80,2013-11-05 09:53:00
5:21 AM,75.2,69.8,83,30.08,10.0,ENE,15.0,21.9,N/A,,Mostly Cloudy,60,2013-11-05 10:21:00
5:53 AM,75.0,69.1,82,30.09,10.0,ENE,13.8,23.0,N/A,,Overcast,70,2013-11-05 10:53:00
6:53 AM,75.9,68.0,76,30.10,10.0,ENE,12.7,21.9,0.00,,Overcast,70,2013-11-05 11:53:00
7:53 AM,77.0,68.0,74,30.12,10.0,ENE,15.0,-,N/A,,Mostly Cloudy,70,2013-11-05 12:53:00
8:53 AM,78.1,66.9,68,30.14,10.0,East,12.7,23.0,N/A,Rain,Rain,80,2013-11-05 13:53:00
9:53 AM,81.0,66.9,62,30.14,10.0,East,18.4,25.3,0.00,,Mostly Cloudy,80,2013-11-05 14:53:00
10:53 AM,82.0,66.9,60,30.14,10.0,East,16.1,24.2,N/A,,Overcast,80,2013-11-05 15:53:00
11:53 AM,77.0,68.0,74,30.12,9.0,East,15.0,26.5,N/A,,Overcast,80,2013-11-05 16:53:00
12:53 PM,81.0,66.9,62,30.10,10.0,ENE,17.3,24.2,N/A,,Mostly Cloudy,60,2013-11-05 17:53:00
1:53 PM,84.0,68.0,58,30.08,10.0,East,13.8,-,N/A,,Partly Cloudy,90,2013-11-05 18:53:00
2:31 PM,82.4,69.8,66,30.08,10.0,ENE,15.0,20.7,N/A,,Mostly Cloudy,70,2013-11-05 19:31:00
2:38 PM,82.4,69.8,66,30.08,10.0,East,16.1,21.9,N/A,,Overcast,90,2013-11-05 19:38:00
2:53 PM,81.0,69.1,67,30.07,10.0,East,12.7,-,N/A,,Overcast,100,2013-11-05 19:53:00
3:53 PM,79.0,70.0,74,30.07,10.0,East,13.8,-,0.00,,Overcast,90,2013-11-05 20:53:00
4:26 PM,78.8,69.8,74,30.08,10.0,East,15.0,-,N/A,,Overcast,80,2013-11-05 21:26:00
4:39 PM,78.8,69.8,74,30.08,10.0,East,16.1,24.2,N/A,,Overcast,80,2013-11-05 21:39:00
4:53 PM,77.0,70.0,79,30.08,10.0,East,12.7,21.9,N/A,,Overcast,90,2013-11-05 21:53:00
5:53 PM,77.0,69.1,76,30.08,10.0,East,15.0,25.3,N/A,,Overcast,100,2013-11-05 22:53:00
6:53 PM,73.0,71.1,93,30.10,9.0,ESE,9.2,-,0.02,Rain,Light Rain,110,2013-11-05 23:53:00
7:01 PM,73.4,69.8,88,30.10,10.0,East,17.3,21.9,N/A,,Overcast,80,2013-11-06 00:01:00
7:53 PM,75.9,68.0,76,30.11,10.0,East,16.1,23.0,N/A,,Overcast,80,2013-11-06 00:53:00
8:53 PM,75.9,66.0,71,30.12,10.0,East,15.0,-,N/A,,Overcast,80,2013-11-06 01:53:00
9:53 PM,75.9,66.0,71,30.12,10.0,East,13.8,-,N/A,,Overcast,80,2013-11-06 02:53:00
10:53 PM,75.0,64.9,71,30.12,10.0,East,9.2,-,N/A,,Partly Cloudy,80,2013-11-06 03:53:00
11:53 PM,75.0,66.0,73,30.11,10.0,East,11.5,18.4,N/A,,Partly Cloudy,90,2013-11-06 04:53:00